Change the Weather History Date:

Thursday, April 4, 2013

  Actual Average Record
Temperature  
Mean Temperature 24 °F -  
Max Temperature 32 °F 41 °F 74 °F (1991)
Min Temperature 14 °F 20 °F -5 °F (1975)
Degree Days  
Heating Degree Days 42    
Moisture  
Dew Point 20 °F    
Average Humidity 79    
Maximum Humidity 93    
Minimum Humidity 69    
Precipitation  
Precipitation 0.00 in - - ()
Sea Level Pressure  
Sea Level Pressure 30.19 in    
Wind  
Wind Speed 13 mph (NNW)    
Max Wind Speed 23 mph    
Max Gust Speed 26 mph    
Visibility 10 miles    
Events      
Averages and records for this station are not official NWS values.
T = Trace of Precipitation, MM = Missing Value Source: NWS Daily Summary

Daily Weather History Graph

Daily Weather History Graph

Search for Another Location

Airport or City:

Trip Planner

Search our weather history database for the weather conditions in past years. The results will help you decide how hot, cold, wet, or windy it might be!

Date:

Astronomy

Apr. 04, 2013 Rise Set
Actual Time 6:58 AM CDT 8:03 PM CDT
Civil Twilight 6:26 AM CDT 8:35 PM CDT
Nautical Twilight 5:47 AM CDT 9:14 PM CDT
Astronomical Twilight 5:06 AM CDT 9:56 PM CDT
Moon 3:54 AM CDT (4/4) 1:56 PM CDT (4/4)
Length of Visible Light 14h 09m
Length of Day
13h 04m
Waning Crescent, 33% of the Moon is Illuminated
Apr 4
Waning Crescent
Apr 10
New
Apr 18
First Quarter
Apr 25
Full
May 2
Last Quarter

Hourly Weather History & Observations

Time (CDT) Temp. Windchill Dew Point Humidity Pressure Visibility Wind Dir Wind Speed Gust Speed Precip Events Conditions
12:14 AM 32.0 °F 23.0 °F 26.6 °F 80% 29.98 in 10.0 mi NW 11.5 mph - N/A   Clear
12:34 AM 30.2 °F 21.9 °F 26.6 °F 86% 29.98 in 10.0 mi NW 9.2 mph - N/A   Clear
12:54 AM 30.2 °F 20.2 °F 26.6 °F 86% 29.98 in 10.0 mi NW 12.7 mph - N/A   Clear
1:14 AM 32.0 °F 22.5 °F 26.6 °F 80% 29.99 in 10.0 mi NW 12.7 mph - N/A   Clear
1:33 AM 32.0 °F 22.5 °F 28.4 °F 87% 29.99 in 10.0 mi NNW 12.7 mph - N/A   Clear
1:54 AM 32.0 °F 22.1 °F 26.6 °F 80% 30.00 in 10.0 mi NNW 13.8 mph - N/A   Clear
2:13 AM 30.2 °F 20.8 °F 26.6 °F 86% 30.00 in 10.0 mi NNW 11.5 mph - N/A   Clear
2:34 AM 30.2 °F 20.2 °F 26.6 °F 86% 30.01 in 10.0 mi NW 12.7 mph - N/A   Clear
2:54 AM 30.2 °F 20.2 °F 26.6 °F 86% 30.02 in 10.0 mi NNW 12.7 mph - N/A   Clear
3:14 AM 30.2 °F 19.8 °F 26.6 °F 86% 30.03 in 10.0 mi NNW 13.8 mph - N/A   Clear
3:34 AM 28.4 °F 18.5 °F 24.8 °F 86% 30.04 in 10.0 mi NNW 11.5 mph - N/A   Clear
3:54 AM 28.4 °F 19.1 °F 24.8 °F 86% 30.05 in 10.0 mi NNW 10.4 mph - N/A   Clear
4:14 AM 26.6 °F 16.8 °F 23.0 °F 86% 30.05 in 10.0 mi North 10.4 mph - N/A   Clear
4:34 AM 26.6 °F 17.5 °F 23.0 °F 86% 30.06 in 10.0 mi NNW 9.2 mph - N/A   Clear
4:54 AM 26.6 °F 19.1 °F 23.0 °F 86% 30.08 in 10.0 mi NNW 6.9 mph - N/A   Clear
5:14 AM 26.6 °F 17.5 °F 21.2 °F 80% 30.09 in 10.0 mi NNW 9.2 mph - N/A   Clear
5:34 AM 24.8 °F 14.6 °F 21.2 °F 86% 30.09 in 10.0 mi NNW 10.4 mph - N/A   Clear
5:54 AM 24.8 °F 15.3 °F 21.2 °F 86% 30.11 in 10.0 mi NNW 9.2 mph - N/A   Clear
6:13 AM 24.8 °F 14.6 °F 19.4 °F 80% 30.11 in 10.0 mi NNW 10.4 mph - N/A   Clear
6:34 AM 24.8 °F 14.0 °F 19.4 °F 80% 30.12 in 10.0 mi NNW 11.5 mph - N/A   Clear
6:54 AM 24.8 °F 13.4 °F 19.4 °F 80% 30.12 in 10.0 mi NNW 12.7 mph - N/A   Clear
7:14 AM 24.8 °F 11.9 °F 19.4 °F 80% 30.13 in 10.0 mi NNW 16.1 mph - N/A   Clear
7:34 AM 24.8 °F 12.9 °F 19.4 °F 80% 30.15 in 10.0 mi NNW 13.8 mph - N/A   Clear
7:53 AM 24.8 °F 13.4 °F 19.4 °F 80% 30.15 in 10.0 mi NNW 12.7 mph - N/A   Clear
8:14 AM 26.6 °F 13.4 °F 19.4 °F 74% 30.16 in 10.0 mi NNW 18.4 mph 21.9 mph N/A   Clear
8:33 AM 24.8 °F 11.9 °F 19.4 °F 80% 30.17 in 10.0 mi NNW 16.1 mph - N/A   Clear
8:54 AM 24.8 °F 11.5 °F 17.6 °F 74% 30.18 in 10.0 mi NNW 17.3 mph - N/A   Clear
9:14 AM 24.8 °F 11.5 °F 19.4 °F 80% 30.19 in 10.0 mi NNW 17.3 mph 20.7 mph N/A   Clear
9:33 AM 24.8 °F 10.7 °F 19.4 °F 80% 30.20 in 10.0 mi NNW 19.6 mph 23.0 mph N/A   Clear
9:54 AM 24.8 °F 10.0 °F 19.4 °F 80% 30.20 in 10.0 mi NNW 21.9 mph 26.5 mph N/A   Clear
10:14 AM 24.8 °F 11.5 °F 19.4 °F 80% 30.21 in 10.0 mi NNW 17.3 mph 25.3 mph N/A   Clear
10:34 AM 24.8 °F 10.3 °F 19.4 °F 80% 30.22 in 10.0 mi North 20.7 mph 26.5 mph N/A   Clear
10:54 AM 24.8 °F 10.0 °F 19.4 °F 80% 30.22 in 10.0 mi North 21.9 mph - N/A   Clear
11:33 AM 26.6 °F 12.0 °F 19.4 °F 74% 30.24 in 10.0 mi North 23.0 mph - N/A   Clear
11:54 AM 26.6 °F 13.1 °F 17.6 °F 69% 30.25 in 10.0 mi NNW 19.6 mph 26.5 mph N/A   Clear
12:14 PM 26.6 °F 12.4 °F 19.4 °F 74% 30.25 in 10.0 mi NNW 21.9 mph 26.5 mph N/A   Clear
12:34 PM 26.6 °F 13.8 °F 19.4 °F 74% 30.26 in 10.0 mi NNW 17.3 mph 21.9 mph N/A   Clear
12:54 PM 26.6 °F 13.4 °F 17.6 °F 69% 30.25 in 10.0 mi NNW 18.4 mph - N/A   Clear
1:13 PM 26.6 °F 14.3 °F 19.4 °F 74% 30.26 in 10.0 mi NNW 16.1 mph 23.0 mph N/A   Clear
1:34 PM 26.6 °F 14.7 °F 19.4 °F 74% 30.26 in 10.0 mi NNW 15.0 mph 21.9 mph N/A   Clear
1:54 PM 26.6 °F 13.1 °F 19.4 °F 74% 30.26 in 10.0 mi North 19.6 mph 23.0 mph N/A   Clear
2:13 PM 26.6 °F 14.3 °F 19.4 °F 74% 30.26 in 10.0 mi NNW 16.1 mph 20.7 mph N/A   Clear
2:34 PM 26.6 °F 13.8 °F 17.6 °F 69% 30.26 in 10.0 mi NNW 17.3 mph 20.7 mph N/A   Clear
2:54 PM 26.6 °F 14.3 °F 19.4 °F 74% 30.25 in 10.0 mi NNW 16.1 mph - N/A   Clear
3:13 PM 26.6 °F 15.2 °F 17.6 °F 69% 30.26 in 10.0 mi NNW 13.8 mph - N/A   Clear
3:34 PM 26.6 °F 14.7 °F 19.4 °F 74% 30.26 in 10.0 mi NNW 15.0 mph - N/A   Clear
3:54 PM 26.6 °F 14.7 °F 19.4 °F 74% 30.26 in 10.0 mi NNW 15.0 mph - N/A   Clear
4:13 PM 26.6 °F 14.7 °F 19.4 °F 74% 30.26 in 10.0 mi NNW 15.0 mph 20.7 mph N/A   Clear
4:34 PM 26.6 °F 14.7 °F 17.6 °F 69% 30.26 in 10.0 mi NNW 15.0 mph - N/A   Clear
4:54 PM 26.6 °F 14.7 °F 19.4 °F 74% 30.26 in 10.0 mi North 15.0 mph - N/A   Clear
5:13 PM 26.6 °F 14.7 °F 17.6 °F 69% 30.27 in 10.0 mi NNW 15.0 mph 21.9 mph N/A   Clear
5:34 PM 26.6 °F 14.7 °F 17.6 °F 69% 30.27 in 10.0 mi NNW 15.0 mph 18.4 mph N/A   Clear
5:54 PM 26.6 °F 15.2 °F 17.6 °F 69% 30.27 in 10.0 mi NNW 13.8 mph - N/A   Clear
6:13 PM 26.6 °F 16.2 °F 17.6 °F 69% 30.28 in 10.0 mi NNW 11.5 mph - N/A   Clear
6:34 PM 26.6 °F 15.7 °F 17.6 °F 69% 30.28 in 10.0 mi NNW 12.7 mph - N/A   Clear
6:54 PM 24.8 °F 13.4 °F 17.6 °F 74% 30.29 in 10.0 mi NNW 12.7 mph - N/A   Clear
7:13 PM 24.8 °F 14.6 °F 17.6 °F 74% 30.29 in 10.0 mi NNW 10.4 mph - N/A   Clear
7:34 PM 24.8 °F 14.0 °F 17.6 °F 74% 30.28 in 10.0 mi NNW 11.5 mph - N/A   Clear
7:54 PM 23.0 °F 11.7 °F 17.6 °F 80% 30.28 in 10.0 mi NNW 11.5 mph - N/A   Clear
8:13 PM 21.2 °F 11.7 °F 15.8 °F 80% 30.28 in 10.0 mi NNW 8.1 mph - N/A   Clear
8:34 PM 19.4 °F 10.4 °F 15.8 °F 86% 30.28 in 10.0 mi NNW 6.9 mph - N/A   Clear
8:54 PM 19.4 °F 10.4 °F 15.8 °F 86% 30.28 in 10.0 mi NNW 6.9 mph - N/A   Clear
9:13 PM 19.4 °F 12.8 °F 15.8 °F 86% 30.28 in 10.0 mi NNW 4.6 mph - N/A   Clear
9:34 PM 19.4 °F 10.4 °F 15.8 °F 86% 30.28 in 10.0 mi NNW 6.9 mph - N/A   Clear
9:53 PM 19.4 °F 8.6 °F 15.8 °F 86% 30.27 in 10.0 mi North 9.2 mph - N/A   Clear
10:14 PM 19.4 °F 12.8 °F 15.8 °F 86% 30.28 in 10.0 mi NW 4.6 mph - N/A   Clear
10:34 PM 15.8 °F 7.2 °F 14.0 °F 93% 30.28 in 10.0 mi NNW 5.8 mph - N/A   Clear
10:53 PM 17.6 °F 9.3 °F 14.0 °F 86% 30.28 in 10.0 mi NNW 5.8 mph - N/A   Clear
11:14 PM 17.6 °F 10.7 °F 14.0 °F 86% 30.28 in 10.0 mi NW 4.6 mph - N/A   Clear
11:34 PM 15.8 °F 8.6 °F 12.2 °F 86% 30.28 in 10.0 mi NW 4.6 mph - N/A   Clear
11:53 PM 14.0 °F 8.2 °F 12.2 °F 93% 30.28 in 10.0 mi NW 3.5 mph - N/A   Clear